EUTELSAT HOTBIRD 13B

Last updated on Mon Oct 20 2025 00:02:46 GMT+0000 (Coordinated Universal Time)

1 29270U 06032A 25292.27381726 .00000154 00000+0 00000+0 0 9995 2 29270 1.0358 84.8381 0004020 116.7650 318.0728 1.00270991 44896
UTC large
Height (km)
Speed (km/s)
/
Latitude / Longitude
Inclination (degrees)
Orbital Period (minutes)
Azimuth
Elevation
Range (km)
Doppler Factor

Next 0 passes for location: London (51.5072 / 0.1276)

Sorry there are no passes over London.